Location: Amherst Park
(40.6444°N, 111.9060°W)
Time: 05:56:07
(UTC+00:00)

Daily predictions for brighter satellites

Satellite Brightness Start Highest point End
(mag) Time Altitude Azimuth Time Altitude Azimuth Time Altitude Azimuth
Cosmos 1602 Rocket 4.1 00:26:25 10° N 00:30:29 36° ENE 00:34:29 10° SE
Cosmos 1697 Rocket 3.3 00:25:58 10° S 00:31:02 37° ESE 00:36:08 10° NE
CZ-2D R/B 3.8 00:31:18 10° SE 00:33:51 23° ENE 00:36:25 10° NNE
Cosmos 1782 2.6 00:30:21 10° S 00:33:57 87° WNW 00:37:33 10° N
Cosmos 2228 4.1 00:30:18 10° SSW 00:34:21 46° W 00:38:28 10° N
YAOGAN 1 4.4 00:35:36 10° ENE 00:36:46 11° ENE 00:37:57 10° NE
Cosmos 1777 Rocket 4.0 00:33:09 10° S 00:38:23 71° ESE 00:43:36 10° NNE
SMAP 3.1 00:35:48 10° SSE 00:40:22 58° ENE 00:44:57 10° N
IRIDIUM 114 4.5 00:39:03 10° N 00:44:10 52° E 00:49:14 10° SSE
UNK 3.7 00:40:50 10° NNE 00:45:26 83° ESE 00:49:59 10° SSW
Landsat 7 3.9 00:41:16 10° SSE 00:45:45 50° ENE 00:50:15 10° N
Gbstr 26 Del rocket 2.8 00:43:07 10° SW 00:47:23 75° SE 00:50:47 12° ENE
Cosmos 1743 2.1 00:48:23 10° N 00:51:39 79° E 00:54:52 10° S
BREEZE-M DEB (TANK) 3.8 00:48:52 10° NW 00:51:51 31° NNE 00:58:34 12° E
IRIDIUM 103 4.3 00:48:09 10° N 00:53:21 64° E 00:58:31 10° SSE
Meteor 1-20 Rocket 4.2 00:48:15 10° N 00:53:39 60° ENE 00:59:02 10° SSE
EXPRESS MD2 4.0 00:55:04 10° S 00:57:03 22° SE 00:58:35 15° E
BREEZE-M DEB (TANK) 3.5 00:53:16 10° SW 00:59:03 43° SSE 01:00:58 17° E
Cosmos 1867 4.0 00:56:48 10° NNW 01:01:57 40° NE 01:07:02 10° ESE
Cosmos 1655 Rocket 4.5 00:56:34 10° N 01:02:17 37° ENE 01:07:57 10° SE
Cosmos 1825 Rocket 3.9 01:00:03 10° N 01:04:11 41° ENE 01:08:14 10° SSE
Cosmos 2098 Rocket 3.9 01:01:00 10° SSW 01:04:46 49° WNW 01:09:15 10° N
Cosmos 773 Rocket 4.4 01:00:58 10° NNW 01:06:09 67° WSW 01:11:20 10° S
Cosmos 1758 Rocket 4.5 01:02:22 10° NNW 01:06:32 50° W 01:10:39 10° SSW
Aureole 1 Rocket 4.2 01:03:32 10° SSE 01:06:53 24° E 01:09:04 18° ENE
Cosmos 2151 2.9 01:03:09 10° N 01:07:19 87° W 01:11:29 10° S
IRIDIUM 106 4.4 01:06:26 10° N 01:11:41 86° W 01:16:53 10° S
Cosmos 2297 Rocket 2.3 01:06:14 10° NNW 01:11:55 83° WSW 01:17:34 10° SSE
Cosmos 990 Rocket 3.9 01:09:15 10° S 01:14:20 74° ESE 01:19:28 10° NNE
ARIANE 5 R/B 2.5 01:10:19 10° SSE 01:15:21 84° WSW 01:20:29 10° NNW
IRS-P3 4.0 01:12:50 10° SSE 01:18:07 71° ENE 01:23:25 10° N
Cosmos 2058 Rocket 3.9 01:15:21 10° SSE 01:19:11 29° E 01:20:44 23° NE
NOSS 2-3 (C) 3.1 01:16:09 10° SSW 01:19:35 53° ESE 01:21:05 29° ENE
SAR-Lupe-3 3.4 01:18:19 25° NNE 01:19:37 83° E 01:22:07 10° SSW
Cosmos 1933 3.3 01:17:02 10° SSW 01:20:51 77° W 01:24:41 10° N
BlueWalker 3 2.8 01:19:16 10° WNW 01:22:45 47° SW 01:26:15 10° SSE
SJ-12 4.0 01:19:31 10° S 01:23:15 69° WSW 01:27:02 10° NNW
USA 238 DEB 3.6 01:19:47 10° SSW 01:25:34 55° ESE 01:29:47 21° NE
USA 238 3.6 01:19:53 10° SSW 01:25:41 54° ESE 01:29:52 21° NE
SPOT 1/Viking Rocket 3.6 01:21:27 10° SSE 01:26:31 58° ENE 01:31:38 10° N
Cosmos 2219 4.2 01:24:34 10° N 01:29:13 25° NE 01:29:28 24° ENE
Meteor 1-25 Rocket 4.3 01:24:06 10° N 01:29:57 87° W 01:35:41 10° S
Cosmos 1076 Rocket 3.6 01:27:27 10° N 01:31:40 52° E 01:35:52 10° SSE
AQUARIUS 4.4 01:27:26 10° S 01:31:49 71° WSW 01:36:14 10° NNW
Cosmos 2084 Rocket 3.2 01:28:01 10° NNW 01:32:14 74° NE 01:36:15 11° SE
Cosmos 1607 4.1 01:26:59 10° NW 01:33:14 76° WSW 01:39:30 10° SSE
Cosmos 1980 Rocket 2.3 01:28:05 10° S 01:33:36 55° ESE 01:36:57 23° NE
Cosmos 1606 Rocket 4.0 01:29:56 10° SSW 01:34:16 63° W 01:38:40 10° N
CZ-2D R/B 3.5 01:30:40 10° SSE 01:34:46 53° ENE 01:38:50 10° N
Meteor 1-5 Rocket 4.0 01:30:46 10° N 01:36:06 69° E 01:41:34 10° SSE
CZ-4C R/B 3.0 01:29:11 10° NNW 01:36:34 85° NE 01:45:31 10° SE
MOS 1 Rocket 3.7 01:31:53 10° S 01:36:40 70° W 01:41:45 10° NNW
BREEZE M DEB (TANK) 2.7 01:33:54 10° WNW 01:42:21 86° SW 01:43:48 34° SE
Cosmos 2369 4.3 01:37:31 10° S 01:42:39 36° ESE 01:43:36 33° E
COSMO-SKYMED 1 2.4 01:40:54 32° NNE 01:42:39 62° E 01:46:42 10° S
Resurs 1-3 3.6 01:40:01 10° SSE 01:44:11 54° ENE 01:48:23 10° N
Cosmos 2263 Rocket 2.3 01:44:15 10° NNW 01:49:45 49° ENE 01:52:20 29° ESE
Cosmos 1900 4.5 01:46:09 10° NNW 01:51:10 75° WSW 01:56:04 10° SSE
NOSS 2-3 (E) 3.9 01:48:45 10° SW 01:52:18 46° NW 01:53:30 33° N
NOSS 2-3 (D) 3.9 01:50:26 10° SW 01:54:02 49° NW 01:55:07 36° N
Cosmos 1538 Rocket 4.0 01:51:05 10° N 01:56:17 57° ENE 01:59:08 26° SE
COSMOS 2455 4.0 01:52:50 10° SSE 01:56:21 24° SE 01:56:21 24° SE
Cosmos 1553 Rocket 3.9 01:56:14 10° S 02:02:13 59° E 02:05:46 26° NNE
Cosmos 2227 Rocket 2.3 01:57:29 10° NNW 02:03:08 75° WSW 02:08:45 10° SSE
ATLAS CENTAUR R/B 4.3 02:03:06 10° W 02:04:02 11° WSW 02:04:58 10° SW
YAOGAN 1 2.7 02:07:47 10° S 02:12:01 69° WSW 02:16:17 10° NNW
Meteor 2-2 Rocket 4.1 02:06:37 10° S 02:12:17 85° E 02:15:07 31° NNE
SL-19 R/B 4.1 02:08:10 10° SSE 02:13:28 88° WSW 02:19:04 10° NNW
Spot 4 Rocket 4.2 02:08:58 10° S 02:14:02 71° WSW 02:19:09 10° NNW
Cosmos 1697 Rocket 4.2 02:10:02 10° WSW 02:14:58 32° WNW 02:19:25 12° N
Cosmos 1898 Rocket 3.5 02:18:40 10° SSW 02:23:48 78° WNW 02:24:30 65° N
DMSP B5D1-3 4.4 02:24:27 73° SSE 02:24:27 73° SSE 02:29:03 10° SSW
IRAS Rocket 4.3 02:18:58 10° S 02:24:27 74° WSW 02:29:56 10° NNW
Cosmos-2242 3.7 02:22:40 10° SSW 02:26:47 52° W 02:27:01 51° WNW
Cosmos 1244 Rocket 4.4 02:21:27 10° N 02:27:45 85° W 02:33:56 10° S
BREEZE-M DEB (TANK) 4.1 02:14:04 10° WNW 02:34:06 59° N 02:35:04 55° NE
Cosmos 1937 Rocket 4.0 02:40:11 10° SSW 02:44:23 55° SW 02:44:23 55° SW
SL-16 R/B 4.4 02:51:37 10° S 02:52:17 14° S 02:52:17 14° S
H-2A R/B 4.0 03:04:12 10° SW 03:05:46 22° SSW 03:05:46 22° SSW
Cosmos 1980 Rocket 4.1 03:13:29 10° WSW 03:17:54 23° NW 03:18:44 22° NW
Cosmos 2263 Rocket 4.2 03:28:54 10° NW 03:33:16 23° W 03:34:12 22° WSW
COSMOS 2406 3.8 11:44:05 51° ESE 11:44:26 52° ESE 11:49:56 10° NNE
Cosmos 2082 Rocket 3.8 11:52:33 24° NNE 11:52:33 24° NNE 11:54:41 10° NNE
SL-16 R/B 4.0 11:48:33 19° NNE 11:51:10 27° NE 11:55:54 10° ESE
